Location: RyutenAO
(34.8939°N, 134.0022°E)
Time: 10:56:38
(UTC+09:00)

Oscar 19 - Pass Details

Date: 11 April 2023
Orbit: 773 x 788 km, 98.8° (Epoch: 29 May)

Event Time Altitude Azimuth Distance (km) Brightness Sun altitude
Rises 04:49:00 0° 3° (N) 3,275 14.2 -10.7°
Reaches altitude 10° 04:51:27 10° 355° (N) 2,345 13.3 -10.2°
Maximum altitude 04:56:10 37° 290° (WNW) 1,208 11.3 -9.3°
Drops below altitude 10° 05:00:52 10° 224° (SW) 2,340 12.6 -8.3°
Enters shadow 05:02:31 - 218° (SW) 2,957 13.1 -8.0°
